Terug naar catalogus

FENGYUN 1C DEB

ActiefPO
NORAD 31187·DEBRIS·🇨🇳 China

Gelanceerd May 10, 1999 vanaf Taiyuan Satellite Launch Center

Loading…

Volgende Passages (komende 24 uur)

TLE

VersSource: Space-Track

Epoch: Sep 14, 2026, 13:15 UTC

1 31187U 99025BJR 26257.55257155  .00012393  00000-0  16155-2 0  9990
2 31187  99.2166 159.3563 0197399 102.3498 259.9877 14.67982915731361

Volg FENGYUN 1C DEB in realtime met AllMySat

Download on the App Store